Regional Weather Roundup
Issued by NWS

Home | Current Version | Previous Version | Graphics & Text | Print | Product List | Glossary On
Versions: 1 2 3 4 5 6 7 8 9 10 11 12 13 14 15 16 17 18 19 20 21 22 23 24 25 26 27 28 29 30 31 32 33 34 35 36 37 38 39 40 41 42 43 44 45 46 47 48 49 50
000
ASUS43 KLOT 281306
RWRIL

ILLINOIS REGIONAL WEATHER ROUNDUP
NATIONAL WEATHER SERVICE CHICAGO/ROMEOVILLE IL
800 AM CDT THU AUG 28 2014

NOTE: "FAIR" INDICATES FEW OR NO CLOUDS BELOW 12,000 FEET WITH NO
SIGNIFICANT WEATHER AND/OR OBSTRUCTIONS TO VISIBILITY.

* THESE STATIONS ARE NOT UNDER NWS QUALITY CONTROL. THEY ALSO MAY NOT
  REPORT WEATHER SUCH AS PRECIPITATION OR FOG.

ILZ001-002-007-009-015-016-024-281400-
NORTHWEST ILLINOIS

CITY           SKY/WX    TMP DP  RH WIND       PRES   REMARKS
MOLINE         PTSUNNY   67  61  81 E12       30.09S
STERLING*      MOSUNNY   66  61  82 E7        30.12R
SAVANNA*       PTSUNNY   67  61  80 SE3       30.12R
$$

ILZ003-004-008-010-011-017-018-281400-
NORTH CENTRAL ILLINOIS

CITY           SKY/WX    TMP DP  RH WIND       PRES   REMARKS
ROCKFORD       MOSUNNY   66  60  81 SE9       30.14F
FREEPORT*      SUNNY     63  61  94 E8        30.15F
ROCHELLE*      SUNNY     65  61  88 E5        30.13F
DE KALB*       SUNNY     64  60  88 E8        30.15F
PERU*          MOSUNNY   67  57  70 E10       30.12S
$$

ILZ005-006-012>014-019>023-281400-
NORTHEAST ILLINOIS

CITY           SKY/WX    TMP DP  RH WIND       PRES   REMARKS
CHICAGO-OHARE  MOSUNNY   68  54  60 E13       30.14S
CHICAGO-MIDWAY PTSUNNY   69  59  70 E12       30.14S
AURORA         MOSUNNY   68  61  78 E5        30.15R
LANSING*       SUNNY     64  56  76 E6        30.15R
JOLIET*        MOSUNNY   66  58  73 E6        30.15R
WAUKEGAN       SUNNY     66  56  70 E8        30.15R
DUPAGE AIRPORT SUNNY     68  60  75 E6        30.14S
KANKAKEE*      SUNNY     64  59  84 NE7       30.13F
WHEELING       PTSUNNY   69  56  62 E7        30.16S
MORRIS*        MOSUNNY   66  62  87 E7        30.13S
ROMEOVILLE*    MOSUNNY   66  60  80 CALM      30.14S
NORTHERLY ISL    N/A     67  56  67 E12         N/A
$$

LMZ740>746-281400-
SOUTHERN LAKE MICHIGAN

STATION/POSITION SKY/WX   TEMP    WIND        PRES    VSBY  WAVE
                          AIR SEA DIR/SP/G                  HT/PER
                          (F)     (DEG/KT/KT) (MB)    (MI)  (FT/S)
SOUTHERN BUOY              65 69   90/ 14/ 16 1021.1R         2/ 4
WAUKEGAN HARBOR            67     100/ 14/ 17   N/A
HARRISON CRIB              67      90/ 14/ 17   N/A
BURNHAM HARBOR             67      70/ 10/ 14   N/A
CALUMET HARBOR             67      70/ 10/ 12 1019.5R
MICHIGAN CITY              61      70/  6/  9   N/A
MICHIGAN CITY 6N           64 73   90/  8/ 12   N/A           3/ 4
ST. JOSEPH                 63 72   90/ 12/ 16   N/A           2/ 4
$$

ILZ025>027-034>036-040-047-049-050-058-095>099-281400-
WEST-CENTRAL ILLINOIS

CITY           SKY/WX    TMP DP  RH WIND       PRES   REMARKS
QUINCY         CLOUDY    72  71  97 E14       30.05F FOG
GALESBURG*     PTSUNNY   67  62  83 E8        30.09S
MACOMB*        CLOUDY    67  63  86 E5        30.10S
JACKSONVILLE*  MOSUNNY   72  69  91 E6        30.08S
PITTSFIELD*    CLOUDY    73  71  94 E5        30.08R FOG
$$

ILZ028>032-037-038-041>044-048-051>054-059>061-281400-
CENTRAL ILLINOIS

CITY           SKY/WX    TMP DP  RH WIND       PRES   REMARKS
PONTIAC        SUNNY     68  61  77 E7        30.11S
DECATUR        CLOUDY    68  64  87 E5        30.10R
PEORIA         CLOUDY    69  60  73 E7        30.10S
LACON*         PTSUNNY   66  58  75 E7        30.10S
LINCOLN*       CLOUDY    69  64  86 E5        30.07R
SPRINGFIELD    MOSUNNY   71  65  81 E7        30.08S
TAYLORVILLE    CLOUDY    68  64  88 E5        30.08S
$$

ILZ033-039-045-046-055>057-062-063-281400-
EAST-CENTRAL ILLINOIS

CITY           SKY/WX    TMP DP  RH WIND       PRES   REMARKS
CHAMPAIGN      MOSUNNY   67  65  93 E8        30.11R
DANVILLE*      MOSUNNY   66  63  90 NE6       30.09R
RANTOUL*       MOSUNNY   68  63  83 E7        30.11S
MATTOON        MOSUNNY   69  65  86 E6        30.08F
PARIS*         PTSUNNY   67  65  94 E3        30.10S
$$

ILZ079-100>102-281400-
SOUTHWEST ILLINOIS

CITY           SKY/WX    TMP DP  RH WIND       PRES   REMARKS
ALTON          PTSUNNY   70  70 100 VRB3      30.06S
BELLEVILLE     SUNNY     72  72 100 CALM      30.05S
CAHOKIA*       SUNNY     73  72  94 CALM      30.05S
SPARTA*        SUNNY     74  72  91 CALM      30.06S
$$

ILZ064>066-069>071-074>076-080>082-084>086-088>090-092>094-281400-
SOUTH-CENTRAL ILLINOIS

CITY           SKY/WX    TMP DP  RH WIND       PRES   REMARKS
CARBONDALE     CLOUDY    74  71  91 CALM      30.06R
CAIRO*         SUNNY     76  74  91 CALM      30.05R
EFFINGHAM*     RAIN      71  66  82 E5        30.08S
MARION         CLOUDY    75  72  88 CALM      30.06R
MT. VERNON     PTSUNNY   73  68  83 CALM      30.07R
SALEM*         SUNNY     74  73  93 CALM      30.07S
METROPOLIS*    SUNNY     76  72  87 CALM      30.04S
$$

ILZ067-068-072-073-078-083-087-091-281400-
SOUTHEAST ILLINOIS

CITY           SKY/WX    TMP DP  RH WIND       PRES   REMARKS
LAWRENCEVILLE  CLOUDY    73  68  84 NE3       30.07R
FLORA*         SUNNY     73  69  90 E5        30.07S
FAIRFIELD*     MOSUNNY   75  73  94 NE3       30.06R
HARRISBURG*    PTSUNNY   74  73  97 NE3       30.06S
ROBINSON*      SUNNY     73  71  93 NE3       30.09R
CARMI*           N/A     77  75  92 E5        30.05S FOG
$$

ABBREVIATIONS USED IN REMARKS
   TC - TEMPERATURE IN CELSIUS
  WCI - WIND CHILL INDEX
   HX - HEAT INDEX
  VSB - VISIBILITY
$$



USA.gov is the U.S. government's official web portal to all federal, state and local government web resources and services.